Back to catalog

STARLINK-11438

AliveCommunicationsVLEO
NORAD 62888·PAYLOAD·🇺🇸 United States

Launched Feb 4, 2025 from Cape Canaveral Space Force Station

Loading…

Next Passes (next 24 hours)

TLE

FreshSource: CelesTrak SupGP

Epoch: Sep 15, 2026, 02:31 UTC

1 62888C 25024K   26258.10534722  .00073424  00000+0  57149-3 0  2588
2 62888  43.0002 119.4253 0001631 263.1358 328.3846 15.70751760    11

Track STARLINK-11438 in real time with AllMySat

Download on the App Store